MIRATA

Last updated on Wed Sep 17 2025 00:03:49 GMT+0000 (Coordinated Universal Time)

1 43015U 17073C 25258.98146528 .00216494 00000+0 17779-2 0 9994 2 43015 97.5183 159.2182 0056609 84.6390 276.1326 15.67671190426116
UTC large
Height (km)
Speed (km/s)
/
Latitude / Longitude
Inclination (degrees)
Orbital Period (minutes)
Azimuth
Elevation
Range (km)
Doppler Factor

Next 0 passes for location: London (51.5072 / 0.1276)

Sorry there are no passes over London.